STARLINK-35386

Last updated on Mon Oct 20 2025 00:02:07 GMT+0000 (Coordinated Universal Time)

1 65862U 25223J 25292.25002315 -.01905319 00000+0 -21773-1 0 9999 2 65862 53.1600 234.9784 0001141 88.6848 20.0770 15.64688869 3730
UTC large
Height (km)
Speed (km/s)
/
Latitude / Longitude
Inclination (degrees)
Orbital Period (minutes)
Azimuth
Elevation
Range (km)
Doppler Factor

Next 0 passes for location: London (51.5072 / 0.1276)

Sorry there are no passes over London.